Satellite: NOAA-11
Catalog number: 19531
Epoch time:      08128.22228058
Element set:     151
Inclination:      098.7962 deg
RA of node:       218.1180 deg
Eccentricity:    0.0011468
Arg of perigee:   181.1406 deg
Mean anomaly:     178.9743 deg
Mean motion:   14.14871459 rev/day
Decay rate:       1.75e-06 rev/day^2
Epoch rev:            1211
Checksum:              290

Satellite: NOAA-12
Catalog number: 21263
Epoch time:      08128.21159142
Element set:     658
Inclination:      098.7652 deg
RA of node:       130.1679 deg
Eccentricity:    0.0011478
Arg of perigee:   242.7469 deg
Mean anomaly:     117.2558 deg
Mean motion:   14.25530095 rev/day
Decay rate:       -1.9e-07 rev/day^2
Epoch rev:           88255
Checksum:              312

Satellite: MET-3/5
Catalog number: 21655
Epoch time:      08127.94186198
Element set:    0466
Inclination:      082.5530 deg
RA of node:       133.5253 deg
Eccentricity:    0.0014721
Arg of perigee:   113.7041 deg
Mean anomaly:     246.5628 deg
Mean motion:   13.17015078 rev/day
Decay rate:        5.1e-07 rev/day^2
Epoch rev:           80415
Checksum:              285

Satellite: MET-2/21
Catalog number: 22782
Epoch time:      08127.55626963
Element set:    0137
Inclination:      082.5452 deg
RA of node:       144.6046 deg
Eccentricity:    0.0023899
Arg of perigee:   049.5309 deg
Mean anomaly:     310.7923 deg
Mean motion:   13.83627367 rev/day
Decay rate:        5.2e-07 rev/day^2
Epoch rev:           74137
Checksum:              320

Satellite: OKEAN-4
Catalog number: 23317
Epoch time:      08127.75286069
Element set:    0581
Inclination:      082.5409 deg
RA of node:       353.7366 deg
Eccentricity:    0.0020462
Arg of perigee:   263.9532 deg
Mean anomaly:     095.9344 deg
Mean motion:   14.82607810 rev/day
Decay rate:       2.89e-06 rev/day^2
Epoch rev:           73214
Checksum:              317

Satellite: NOAA-14
Catalog number: 23455
Epoch time:      08128.35763624
Element set:     131
Inclination:      098.9472 deg
RA of node:       200.5726 deg
Eccentricity:    0.0008537
Arg of perigee:   259.1077 deg
Mean anomaly:     100.9142 deg
Mean motion:   14.13739236 rev/day
Decay rate:      -2.44e-06 rev/day^2
Epoch rev:           68858
Checksum:              311

Satellite: SICH-1
Catalog number: 23657
Epoch time:      08127.74751964
Element set:     376
Inclination:      082.5251 deg
RA of node:       134.7170 deg
Eccentricity:    0.0022088
Arg of perigee:   255.8779 deg
Mean anomaly:     103.9975 deg
Mean motion:   14.81575120 rev/day
Decay rate:       2.37e-06 rev/day^2
Epoch rev:           68408
Checksum:              326

Satellite: NOAA-15
Catalog number: 25338
Epoch time:      08128.20271809
Element set:     453
Inclination:      098.5526 deg
RA of node:       121.1071 deg
Eccentricity:    0.0010998
Arg of perigee:   155.8604 deg
Mean anomaly:     204.3076 deg
Mean motion:   14.24699348 rev/day
Decay rate:       1.02e-06 rev/day^2
Epoch rev:           51896
Checksum:              305

Satellite: RESURS
Catalog number: 25394
Epoch time:      08127.72759763
Element set:    0925
Inclination:      098.3902 deg
RA of node:       173.5677 deg
Eccentricity:    0.0001609
Arg of perigee:   000.1917 deg
Mean anomaly:     359.9262 deg
Mean motion:   14.24158542 rev/day
Decay rate:        2.0e-07 rev/day^2
Epoch rev:           51054
Checksum:              303

Satellite: FENGYUN1
Catalog number: 25730
Epoch time:      08127.97432368
Element set:    0417
Inclination:      098.7236 deg
RA of node:       105.1584 deg
Eccentricity:    0.0020294
Arg of perigee:   293.2720 deg
Mean anomaly:     066.6312 deg
Mean motion:   14.07706827 rev/day
Decay rate:      -3.72e-06 rev/day^2
Epoch rev:           46316
Checksum:              299

Satellite: OKEAN-0
Catalog number: 25860
Epoch time:      08127.55813170
Element set:     359
Inclination:      097.7487 deg
RA of node:       119.9526 deg
Eccentricity:    0.0001893
Arg of perigee:   062.5029 deg
Mean anomaly:     297.6381 deg
Mean motion:   14.73519169 rev/day
Decay rate:        5.6e-07 rev/day^2
Epoch rev:           47326
Checksum:              332

Satellite: NOAA-16
Catalog number: 26536
Epoch time:      08128.19287526
Element set:     920
Inclination:      099.1545 deg
RA of node:       116.4749 deg
Eccentricity:    0.0010324
Arg of perigee:   346.3600 deg
Mean anomaly:     013.7299 deg
Mean motion:   14.12477797 rev/day
Decay rate:      -2.01e-06 rev/day^2
Epoch rev:           39298
Checksum:              321

Satellite: NOAA-17
Catalog number: 27453
Epoch time:      08128.36843251
Element set:     914
Inclination:      098.5363 deg
RA of node:       194.1712 deg
Eccentricity:    0.0011134
Arg of perigee:   222.9450 deg
Mean anomaly:     137.0883 deg
Mean motion:   14.23970990 rev/day
Decay rate:        8.8e-07 rev/day^2
Epoch rev:           30499
Checksum:              313

